Location: Spruce Knob
(38.6995°N, 79.5330°W)
Time: 12:16:39
(UTC-04:00)

MOZHAYETS 4 - Pass Details

Date: 01 June 2024
Orbit: 652 x 670 km, 98.3° (Epoch: 14 June)

Event Time Altitude Azimuth Distance (km) Brightness Sun altitude
Rises 04:15:10 0° 151° (SSE) 2,980 10.9 -16.1°
Reaches altitude 10° 04:17:27 10° 145° (SE) 2,069 10.1 -15.8°
Maximum altitude 04:21:46 47° 72° (ENE) 875 8.7 -15.2°
Drops below altitude 10° 04:26:05 10° 360° (N) 2,072 10.9 -14.6°
Sets 04:28:22 0° 354° (N) 2,985 11.7 -14.3°
